Regional Weather Roundup
Issued by NWS

Home | Current Version | Previous Version | Graphics & Text | Print | Product List | Glossary On
Versions: 1 2 3 4 5 6 7 8 9 10 11 12 13 14 15 16 17 18 19 20 21 22 23 24 25 26 27 28 29 30 31 32 33 34 35 36 37 38 39 40 41 42 43 44 45 46 47 48 49 50
000
ASUS45 KBOU 272007
RWRCO

WEATHER ROUNDUP FOR COLORADO
NATIONAL WEATHER SERVICE DENVER/BOULDER CO
200 PM MDT FRI MAY 27 2016

NOTE: "FAIR" INDICATES FEW OR NO CLOUDS BELOW 12000 FEET WITH NO
SIGNIFICANT WEATHER AND/OR OBSTRUCTIONS TO VISIBILITY.

COZ001>005-013-030-031-272100-
...NORTHWEST COLORADO...

CITY           SKY/WX    TMP DP  RH WIND       PRES   REMARKS
CRAIG          LGT RAIN  58  37  45 W10       29.94F
HAYDEN         FAIR      57  34  41 E17       29.96R
MEEKER         FAIR      57  38  48 SW7       29.94F
MOUNT WERNER   NOT AVBL
STEAMBOAT SPGS CLOUDY    46  39  77 E5        29.97S
WALDEN         PTSUNNY   54  32  43 NE14G22   29.98F
$$

COZ006>008-011-272100-
...WEST CENTRAL VALLEYS...

CITY           SKY/WX    TMP DP  RH WIND       PRES   REMARKS
GRAND JUNCTION LGT RAIN  68  34  28 N21G29    29.89S
MONTROSE       FAIR      66  30  26 VRB5      29.93F
EAGLE          PTSUNNY   57  39  51 SW15      29.97S
RIFLE          CLOUDY    62  36  37 W20G26    29.91R
DELTA          FAIR      71  37  29 SE6       29.89F
NUCLA          RAIN      59  41  51 N14       30.00R
$$

COZ017>023-064>068-272100-
...SOUTHWEST COLORADO...

CITY           SKY/WX    TMP DP  RH WIND       PRES   REMARKS
DURANGO        FAIR      56  38  50 CALM      29.94S
CORTEZ         LGT RAIN  68  31  25 NW14G22   29.93S
PAGOSA SPRINGS CLOUDY    54  29  38 CALM      29.99S
TELLURIDE      CLOUDY    41  35  78 CALM      30.10R
WOLF CREEK PAS FAIR      34  28  80 SW12      30.16S WCI  25
$$

COZ009-010-012-014-032>034-037-058>063-272100-
...CENTRAL COLORADO...

CITY           SKY/WX    TMP DP  RH WIND       PRES   REMARKS
ASPEN          CLOUDY    49  32  52 W12G18    29.99R
BUENA VISTA    PTSUNNY   55  24  30 NW8G20    29.95R
COPPER MTN     NOT AVBL
BERTHOUD PASS  PTSUNNY   27  18  69 N18       30.12R WCI  13
COTTONWOOD PAS CLOUDY    52  27  37 NE3       30.02S
GUNNISON       FAIR      55  25  30 SW5       29.99S
KREMMLING      FAIR      59  28  31 N9        29.96F
LEADVILLE      PTSUNNY   45  25  45 N12G21    30.02F
SALIDA         FAIR      60  24  24 W8        30.00F
SUNLIGHT       CLOUDY    39  34  81 NE5       30.14S
WILKERSON PASS CLOUDY    34  32  93 E6        30.10S WCI  29
$$

COZ069>075-272100-
...SAN LUIS VALLEY/SANGRE DE CRISTO MOUNTAINS...

CITY           SKY/WX    TMP DP  RH WIND       PRES   REMARKS
ALAMOSA        FAIR      60  32  34 N12G21    29.94F
LA VETA PASS   PTSUNNY   39  34  81 S5        30.05R
SAGUACHE       PTSUNNY   55  28  35 N18G24    29.96F
$$

COZ035-036-038>040-272100-
...NORTHERN COLORADO FRONT RANGE...

CITY           SKY/WX    TMP DP  RH WIND       PRES   REMARKS
DENVER INTL AP CLOUDY    54  46  74 NE17      29.91S
DMNS CITY PARK   N/A     56  44  64 E14G29    29.91R
AURORA         CLOUDY    52  46  80 NE17      29.92S
FRONT RANGE AP CLOUDY    48  45  87 N16G25    29.92F
ERIE MUNI ARPT FAIR      58  46  63 E10G20    29.90R
BOULDER MUN AP CLOUDY    61  37  41 N6        29.89
CENTENNIAL     CLOUDY    53  43  68 E13G22    29.92R
BROOMFIELD     PTSUNNY   59  45  58 N14G20    29.91S
FORT COLLINS   PTSUNNY   39  39 100 N13       29.89S
LONGMONT       PTSUNNY   65  37  36 N15       29.89S
$$

COZ041-046-047-076>085-087-088-272100-
...PIKES PEAK/PALMER DIVIDE AND SOUTHERN FOOTHILLS...

CITY           SKY/WX    TMP DP  RH WIND       PRES   REMARKS
COLO. SPRINGS  PTSUNNY   59  37  44 N32G46    29.90S
A. F. ACADEMY  PTSUNNY   54  36  50 N24G31    29.91R
SCHRIEVER AFB  NOT AVBL
ELLICOTT       FAIR     N/A N/A N/A N36G44    29.87S
FALCON         CLOUDY    47  40  77 N26G35    29.94S
FORT CARSON    FAIR      58  38  47 N28G36    29.89R
LIMON          HVY RAIN  48  46  93 N23       29.86R FOG
MONUMENT HILL  LGT RAIN  39  37  93 NE14G29   29.97R
TRINIDAD       FAIR      60  44  55 N15       29.86S
$$

COZ042>045-048>051-090-091-272100-
...NORTHEAST COLORADO...

CITY           SKY/WX    TMP DP  RH WIND       PRES   REMARKS
GREELEY ARPT   PTSUNNY   57  46  67 NE16G23   29.90R
AKRON          FAIR      57  46  66 N25G33    29.85S
BURLINGTON     CLOUDY    56  51  84 NE14      29.77S THUNDER
WRAY           NOT AVBL
STERLING       PTSUNNY   59  45  58 NE21G30   29.86R THUNDER
HOLYOKE        FAIR      59  52  77 N25G31    29.80
FORT MORGAN    PTSUNNY   62  42  49 N13G22    29.87S
$$

COZ086-089-092>099-272100-
...SOUTHEAST COLORADO...

CITY           SKY/WX    TMP DP  RH WIND       PRES   REMARKS
PUEBLO         LGT RAIN  64  41  42 N26G39    29.84S
LA JUNTA       CLOUDY    61  47  59 N28G37    29.78S
LAMAR          CLOUDY    58  52  80 N7        29.68R
SPRINGFIELD    NOT AVBL
$$



USA.gov is the U.S. government's official web portal to all federal, state and local government web resources and services.